Temperature
-2 -2 -2 -2 -2 -2 -2 -2 -2 -1 -1 -1 -1 -0 -0 0 0 0 1 1 1 1 2 2 2 2 2 3 3 3 3 4 4 4 4 4 4 5 5 5 5 5 6
-3 -3 -3 -3 -3 -3 -2 -2 -2 -2 -2 -1 -1 -1 -1 -1 -0 -0 0 0 0 1 1 1 1 2 2 2 2 2 3 3 3 3 3 4 4 4 4 4 4 4 5
-4 -4 -3 -3 -3 -3 -3 -3 -3 -2 -2 -2 -2 -2 -1 -1 -1 -1 -0 -0 0 0 0 1 1 1 1 1 2 2 2 2 3 3 3 3 3 3 3 3 3 4 4
-4 -4 -4 -4 -4 -4 -4 -3 -3 -3 -3 -2 -2 -2 -2 -2 -1 -1 -1 -1 -0 -0 0 0 0 1 1 1 1 1 2 2 2 2 2 2 2 3 3 3 3 3 3
-5 -4 -4 -4 -4 -4 -4 -4 -4 -3 -3 -3 -3 -2 -2 -2 -2 -2 -1 -1 -1 -1 -0 -0 0 0 0 1 1 1 1 1 1 1 1 2 2 2 2 2 2 2 2
-5 -5 -5 -5 -5 -5 -5 -4 -4 -4 -4 -3 -3 -3 -3 -3 -2 -2 -2 -2 -1 -1 -1 -1 -0 -0 0 0 0 1 1 1 1 1 1 1 1 1 1 2 2 2 2
-6 -6 -6 -6 -5 -5 -5 -5 -5 -4 -4 -4 -4 -3 -3 -3 -3 -3 -2 -2 -2 -2 -1 -1 -1 -1 -0 -0 -0 -0 -0 0 0 1 1 1 1 1 1 1 1 1 1
-6 -6 -6 -6 -6 -6 -6 -5 -5 -5 -5 -5 -4 -4 -4 -3 -3 -3 -3 -3 -3 -2 -2 -2 -1 -1 -1 -1 -1 -1 -1 -0 -0 -0 0 0 1 1 1 1 1 1 1
-7 -7 -7 -7 -7 -6 -6 -6 -6 -6 -6 -5 -5 -5 -5 -4 -4 -4 -3 -3 -3 -3 -2 -2 -2 -2 -1 -1 -1 -1 -1 -1 -1 -1 -1 -0 -0 -0 0 0 0 -0 -0
-7 -7 -7 -7 -7 -7 -7 -7 -6 -7 -6 -6 -6 -6 -5 -5 -5 -4 -4 -4 -4 -3 -3 -3 -2 -2 -2 -2 -2 -2 -2 -2 -1 -1 -1 -1 -1 -1 -1 -0 -0 -1 -1
-8 -8 -8 -8 -8 -8 -7 -7 -7 -7 -7 -7 -7 -6 -6 -6 -5 -5 -4 -4 -4 -4 -4 -3 -3 -3 -3 -2 -2 -2 -2 -2 -2 -2 -2 -1 -1 -1 -1 -1 -1 -1 -1
-8 -8 -8 -8 -8 -8 -8 -8 -8 -8 -8 -7 -7 -7 -7 -6 -6 -6 -5 -5 -5 -4 -4 -4 -4 -4 -3 -3 -3 -3 -3 -2 -2 -2 -2 -2 -2 -2 -2 -2 -1 -1 -1
-9 -9 -8 -8 -8 -9 -9 -8 -8 -8 -8 -8 -8 -8 -7 -7 -7 -6 -6 -6 -5 -5 -5 -5 -4 -4 -4 -4 -4 -3 -3 -3 -3 -3 -3 -3 -2 -2 -2 -2 -2 -2 -2
-9 -9 -9 -9 -9 -9 -9 -9 -9 -9 -9 -8 -8 -8 -8 -7 -7 -7 -6 -6 -6 -6 -5 -5 -5 -4 -4 -4 -4 -4 -4 -4 -4 -3 -3 -3 -3 -3 -3 -3 -3 -3 -2
-10 -10 -9 -10 -10 -9 -9 -9 -9 -9 -9 -9 -8 -8 -8 -8 -8 -7 -7 -7 -6 -6 -6 -5 -5 -5 -5 -5 -5 -5 -5 -5 -4 -4 -4 -4 -4 -3 -3 -3 -3 -3 -3
-10 -10 -10 -10 -10 -10 -10 -10 -9 -9 -9 -9 -9 -9 -8 -8 -8 -7 -7 -7 -6 -6 -6 -6 -6 -6 -6 -6 -6 -6 -5 -5 -5 -5 -5 -4 -4 -4 -4 -4 -4 -4 -4
-11 -11 -11 -11 -11 -11 -10 -10 -10 -9 -9 -9 -9 -9 -9 -8 -8 -8 -8 -7 -7 -7 -7 -7 -7 -7 -7 -6 -6 -6 -6 -6 -5 -5 -5 -5 -5 -5 -5 -5 -5 -5 -5
-11 -11 -11 -11 -11 -11 -11 -11 -11 -10 -10 -9 -9 -9 -9 -9 -8 -8 -8 -8 -8 -8 -8 -8 -8 -8 -7 -7 -7 -7 -7 -6 -6 -6 -6 -6 -6 -5 -5 -5 -5 -5 -5
-11 -11 -11 -11 -11 -11 -11 -11 -11 -11 -10 -10 -10 -9 -9 -9 -9 -9 -9 -8 -9 -9 -9 -8 -8 -8 -8 -8 -7 -7 -7 -7 -7 -7 -6 -6 -6 -6 -6 -6 -6 -6 -6
-11 -12 -12 -12 -11 -11 -11 -11 -11 -11 -11 -11 -11 -10 -10 -10 -9 -9 -9 -9 -9 -9 -9 -9 -9 -9 -8 -8 -8 -8 -7 -7 -7 -7 -7 -7 -7 -7 -7 -7 -7 -7 -7
-12 -12 -12 -12 -12 -12 -12 -12 -11 -11 -11 -11 -11 -11 -11 -10 -10 -10 -10 -10 -10 -10 -9 -9 -9 -9 -9 -9 -8 -8 -8 -8 -8 -8 -8 -8 -8 -8 -8 -8 -8 -8 -8
-12 -12 -12 -12 -12 -12 -12 -12 -12 -12 -12 -11 -11 -11 -11 -11 -11 -11 -10 -10 -10 -10 -10 -10 -9 -9 -9 -9 -9 -9 -8 -8 -8 -8 -8 -8 -8 -8 -8 -8 -8 -8 -8
-13 -12 -12 -12 -12 -12 -12 -12 -12 -12 -12 -12 -12 -12 -11 -11 -11 -11 -11 -11 -11 -10 -10 -10 -10 -10 -9 -9 -9 -9 -9 -9 -9 -9 -9 -9 -9 -9 -9 -9 -9 -9 -9
-13 -13 -13 -13 -13 -13 -13 -13 -13 -12 -12 -12 -12 -12 -12 -12 -12 -11 -11 -11 -11 -11 -11 -10 -10 -10 -10 -10 -10 -9 -9 -9 -9 -9 -9 -9 -9 -9 -9 -9 -9 -9 -9
-13 -13 -13 -13 -13 -13 -13 -13 -13 -13 -13 -13 -12 -12 -12 -12 -12 -12 -12 -11 -11 -11 -11 -11 -10 -10 -10 -10 -10 -10 -10 -10 -10 -10 -10 -10 -10 -10 -10 -10 -9 -9 -9
-13 -13 -13 -13 -13 -13 -13 -13 -13 -13 -13 -13 -13 -13 -13 -12 -12 -12 -12 -12 -12 -11 -11 -11 -11 -11 -10 -10 -10 -10 -10 -10 -10 -10 -10 -10 -10 -10 -10 -10 -10 -10 -10
Wind_Speed
6 7 7 7 6 7 6 6 6 6 7 7 7 7 7 7 6 6 6 6 7 6 6 6 7 6 5 4 4 4 4 3 5 3 2 2 3 3 2 2 3 4 4
7 7 8 7 7 7 7 7 7 7 7 7 7 7 8 7 6 7 7 7 7 7 7 7 7 6 6 5 4 5 4 4 4 5 3 3 4 4 3 3 2 3 3
7 7 7 7 7 7 8 8 8 8 8 8 7 8 8 7 7 7 7 7 8 8 8 8 8 7 7 6 5 5 4 4 4 4 4 3 3 3 3 3 3 2 3
7 7 8 7 7 8 8 8 8 8 8 8 8 8 8 8 8 8 8 7 7 7 8 8 8 8 8 7 6 6 5 4 4 4 4 3 3 3 3 4 3 3 3
7 7 7 7 7 8 8 8 8 8 9 9 8 8 8 8 8 8 7 7 7 7 7 7 7 8 9 8 7 6 6 5 5 5 4 4 4 4 4 3 4 2 2
7 8 8 8 8 8 8 8 8 8 8 8 8 8 8 8 11 11 8 7 7 7 7 7 7 7 8 9 9 8 8 8 7 7 6 6 6 4 4 4 3 3 3
7 7 8 8 8 8 9 9 9 8 8 8 8 8 8 9 11 11 10 7 6 6 7 6 6 6 7 5 6 7 8 9 10 8 8 8 7 6 5 5 5 4 4
7 7 7 7 8 8 8 8 8 8 8 8 8 8 8 8 10 10 9 6 5 6 6 7 7 6 6 6 5 4 4 5 7 7 7 8 7 6 7 6 6 4 2
7 8 8 8 8 8 8 8 8 8 8 8 7 7 7 8 10 9 9 4 4 5 5 6 6 5 6 6 5 5 4 4 4 6 7 8 8 8 7 4 4 4 3
8 8 8 8 8 8 8 8 7 7 8 8 8 7 7 7 10 10 8 4 4 4 3 4 6 5 6 6 5 5 6 5 4 3 4 5 5 5 7 6 6 5 3
8 8 8 7 8 8 7 7 7 7 7 7 8 7 6 7 9 10 9 4 3 3 3 2 2 4 5 5 5 5 7 5 4 4 4 3 3 3 4 4 4 5 5
7 8 8 7 7 7 7 6 6 6 7 7 7 7 5 6 8 8 9 7 5 3 3 2 2 2 3 3 3 4 5 5 3 3 3 3 3 3 3 2 3 2 3
8 8 8 8 7 7 6 6 5 5 5 6 6 6 6 5 6 10 10 9 7 4 2 2 3 3 3 2 2 3 3 3 3 3 4 4 3 3 2 1 1 2 1
8 8 8 7 7 6 6 5 5 5 5 5 6 6 6 6 5 5 5 5 5 4 2 2 3 3 3 3 2 2 1 1 2 3 3 2 2 2 2 2 2 2 1
7 7 7 7 7 6 6 5 6 4 5 6 5 5 6 5 7 10 7 5 4 3 2 1 1 1 1 2 2 1 1 0 0 1 1 1 1 2 2 2 1 2 1
8 8 7 6 6 6 6 7 9 9 11 10 10 9 7 8 10 11 10 9 8 6 3 1 1 1 1 1 1 2 1 1 1 0 1 1 1 2 1 1 2 2 2
7 8 7 7 6 6 7 7 7 9 10 11 11 11 10 10 10 10 9 8 8 7 4 3 2 2 2 2 1 1 1 1 1 1 1 1 1 1 2 1 1 1 1
7 8 8 6 6 6 6 6 6 6 7 7 9 11 12 11 10 10 9 7 5 5 3 3 3 3 2 2 2 1 1 1 1 1 1 1 1 1 2 1 1 1 1
7 6 6 6 6 6 6 6 5 6 6 6 6 8 11 11 10 9 8 5 4 4 3 3 3 3 2 2 2 1 1 1 2 2 2 1 1 1 1 1 1 1 0
6 10 9 7 6 6 6 6 5 5 5 5 6 6 7 7 5 6 5 4 4 4 4 3 3 3 2 2 2 1 1 2 2 2 2 1 1 1 1 1 1 1 1
6 7 10 7 6 6 6 6 5 5 5 6 6 7 9 5 5 5 4 4 4 4 4 3 3 3 2 2 1 2 2 2 2 2 1 1 1 1 1 1 1 1 1
5 6 6 6 6 6 6 5 5 5 6 6 6 7 10 6 4 4 4 4 4 4 4 3 3 2 2 2 2 2 2 1 1 1 1 1 1 1 1 1 1 1 1
5 6 6 6 6 8 7 5 5 5 5 6 6 6 5 5 4 4 4 4 4 4 4 3 2 2 2 2 1 1 1 1 0 0 0 1 1 1 0 1 1 1 0
5 5 6 6 6 6 5 5 5 5 5 5 5 5 5 5 4 5 4 4 4 4 4 3 3 3 3 3 2 2 2 2 1 1 1 1 0 0 0 0 0 1 1
4 5 5 5 6 6 5 5 5 5 6 6 6 5 5 5 5 5 4 4 4 4 5 4 3 3 3 4 3 3 4 4 3 1 1 1 1 1 1 1 1 1 1
4 5 5 5 5 5 5 5 5 5 5 6 5 5 5 4 4 5 4 4 4 4 4 4 5 5 5 4 4 5 5 5 4 2 1 1 1 1 1 1 1 1 1
Wind_Direction
327 324 321 318 318 318 312 311 313 312 307 299 299 292 286 280 274 264 260 261 258 256 248 240 238 234 236 231 229 235 236 226 241 255 235 208 195 204 220 219 217 210 216
323 319 315 316 320 319 315 314 314 309 307 302 298 293 285 282 275 266 261 256 252 250 244 237 237 236 235 230 225 228 231 224 217 234 236 215 213 206 201 208 233 231 224
322 318 317 321 322 319 316 315 314 310 307 303 297 289 285 278 273 267 261 256 249 246 241 238 236 231 234 234 225 228 228 228 213 214 228 222 217 205 198 219 224 234 247
322 320 318 318 317 316 315 315 313 310 305 300 295 287 284 280 274 269 265 259 253 250 244 239 236 231 231 226 224 224 220 215 214 211 217 220 214 202 193 207 225 226 239
319 317 316 316 317 318 317 315 315 312 308 303 296 288 285 280 273 267 263 261 253 250 250 244 240 237 236 229 227 217 211 211 212 212 214 216 212 198 207 208 218 220 225
314 314 317 318 319 321 320 318 317 312 309 304 298 293 285 283 280 275 270 261 251 244 248 246 241 236 238 238 238 231 221 213 210 213 218 216 216 211 207 204 203 216 236
310 314 317 317 319 321 322 323 320 317 315 311 307 304 298 293 287 278 271 269 250 242 244 243 243 239 235 228 234 235 235 235 227 218 214 218 219 213 203 209 213 221 233
311 316 318 318 318 319 319 319 320 320 317 313 311 309 307 306 302 292 283 276 258 246 244 241 237 231 226 221 219 226 238 244 240 232 219 222 222 220 210 213 215 219 229
316 317 319 318 316 315 315 317 319 319 318 316 313 314 312 312 308 296 288 276 267 259 250 245 237 227 224 220 213 218 235 249 250 231 228 227 227 231 224 202 198 201 235
317 316 317 316 314 312 312 314 316 316 315 317 317 316 313 312 314 307 299 279 272 268 263 253 242 235 227 224 211 210 222 229 225 230 230 232 228 229 233 220 204 208 219
318 316 315 315 313 309 310 312 316 318 318 319 317 316 316 317 320 322 317 302 275 274 278 271 252 242 241 243 243 223 223 224 211 209 217 213 214 217 218 221 213 209 213
320 318 316 315 316 317 315 317 319 320 320 322 322 322 323 323 326 328 327 320 307 289 282 283 270 265 272 273 262 236 232 230 209 206 215 215 215 215 209 203 201 207 217
323 321 318 317 317 318 316 318 319 320 322 322 324 323 326 329 332 332 334 335 331 318 309 314 319 320 319 303 268 266 254 220 204 210 220 220 214 201 180 157 124 120 73
321 321 323 325 322 322 322 322 321 320 319 319 320 321 322 327 331 332 333 334 333 325 323 336 342 344 338 332 325 316 291 213 206 204 205 200 178 165 172 162 161 145 112
319 320 325 326 323 324 324 322 320 313 312 314 313 314 316 321 327 330 329 327 325 310 319 349 13 6 358 1 5 2 13 14 197 174 177 176 181 171 175 161 150 137 164
325 326 326 323 323 325 325 326 331 330 328 330 330 328 324 325 330 333 336 339 342 340 347 13 7 9 1 359 1 5 15 14 24 60 143 161 173 168 157 138 140 148 161
325 324 323 323 325 324 324 326 328 334 339 341 340 340 339 336 338 341 344 348 358 5 16 17 8 2 357 357 2 4 6 12 40 57 80 107 123 135 138 143 146 147 159
325 322 323 322 322 319 321 321 322 325 330 336 339 341 342 342 344 348 351 359 7 12 13 11 5 357 353 355 359 6 12 25 41 47 66 82 99 121 135 145 150 154 163
325 324 323 323 321 320 321 321 322 322 324 327 333 338 343 344 347 353 2 11 5 0 1 3 2 356 352 356 3 15 21 25 31 39 50 55 71 102 116 126 128 135 131
325 326 329 328 328 327 327 327 327 326 328 329 330 331 338 343 349 353 359 0 358 352 352 355 355 354 357 1 4 20 26 30 37 41 40 47 56 82 110 123 142 152 161
322 324 328 329 330 329 329 328 327 328 329 327 326 328 337 343 343 344 347 350 351 347 344 343 344 351 356 355 5 19 26 29 31 35 34 38 53 71 77 90 91 116 135
319 319 324 324 325 326 327 328 328 327 328 327 327 331 338 344 343 344 346 346 347 344 344 343 347 351 348 351 4 19 20 19 24 35 40 39 44 56 78 89 90 81 112
314 318 322 324 325 327 330 330 329 328 328 329 329 331 335 339 339 340 342 340 340 344 347 349 350 346 348 349 350 10 347 332 323 125 92 48 33 31 72 119 157 175 191
317 320 321 322 323 323 324 325 326 326 327 328 329 331 335 337 336 337 338 337 342 344 342 342 345 348 348 339 330 320 305 298 287 223 175 167 180 245 206 192 225 227 226
319 318 318 318 319 320 320 322 324 325 326 327 328 329 332 334 336 338 340 341 340 342 343 337 331 334 339 335 326 318 320 324 315 282 230 190 195 222 228 228 243 256 259
315 315 314 315 316 317 318 318 320 323 324 324 326 326 327 329 330 331 333 336 339 340 338 335 335 334 330 326 322 323 327 332 334 321 278 206 200 232 225 225 219 231 245
Height
1501 1499 1496 1494 1492 1491 1489 1487 1485 1484 1483 1481 1480 1479 1479 1478 1478 1478 1478 1479 1479 1479 1480 1481 1481 1483 1484 1485 1487 1488 1489 1491 1491 1492 1494 1496 1497 1499 1500 1502 1503 1504 1504
1498 1496 1493 1491 1489 1487 1485 1483 1481 1479 1478 1476 1475 1474 1473 1472 1472 1472 1472 1472 1473 1473 1474 1475 1475 1477 1478 1479 1480 1482 1483 1484 1486 1486 1488 1490 1491 1493 1495 1496 1497 1498 1499
1495 1493 1490 1487 1485 1482 1480 1478 1476 1474 1472 1471 1469 1468 1467 1467 1466 1466 1466 1466 1466 1467 1468 1468 1469 1470 1471 1472 1474 1475 1477 1479 1480 1481 1482 1484 1486 1487 1489 1490 1492 1493 1494
1492 1490 1487 1484 1481 1479 1476 1474 1472 1470 1468 1466 1464 1462 1461 1461 1460 1460 1460 1460 1460 1460 1461 1462 1463 1464 1465 1466 1468 1469 1471 1472 1474 1475 1476 1478 1479 1481 1483 1484 1485 1487 1488
1489 1486 1484 1481 1478 1475 1472 1470 1467 1465 1463 1461 1459 1457 1456 1455 1454 1453 1453 1453 1453 1453 1454 1455 1456 1457 1458 1460 1461 1463 1465 1466 1467 1469 1470 1471 1473 1475 1477 1478 1480 1481 1482
1486 1483 1480 1477 1474 1471 1468 1466 1463 1461 1458 1456 1454 1452 1450 1448 1447 1447 1447 1446 1446 1446 1447 1448 1449 1451 1452 1454 1455 1457 1458 1459 1461 1462 1463 1464 1466 1468 1471 1472 1474 1475 1476
1483 1480 1477 1474 1471 1468 1465 1462 1459 1456 1454 1451 1449 1447 1444 1442 1441 1441 1440 1440 1440 1440 1441 1441 1442 1444 1446 1447 1448 1450 1451 1453 1455 1456 1456 1458 1460 1462 1465 1466 1468 1470 1470
1479 1476 1474 1471 1468 1465 1462 1458 1455 1452 1450 1447 1444 1442 1439 1437 1436 1435 1435 1435 1434 1434 1435 1436 1436 1437 1439 1440 1441 1443 1444 1445 1447 1449 1450 1452 1454 1457 1459 1461 1462 1464 1465
1476 1473 1470 1467 1464 1461 1458 1455 1452 1449 1446 1443 1441 1438 1436 1433 1432 1431 1431 1430 1429 1428 1429 1430 1430 1431 1432 1434 1435 1436 1437 1439 1441 1443 1445 1446 1448 1451 1453 1455 1457 1458 1458
1473 1470 1467 1464 1461 1458 1455 1452 1449 1447 1443 1440 1438 1435 1433 1430 1429 1428 1427 1426 1424 1424 1424 1425 1425 1425 1426 1428 1429 1430 1431 1432 1435 1437 1438 1440 1442 1444 1447 1449 1450 1452 1453
1470 1467 1464 1461 1458 1455 1452 1450 1447 1444 1441 1438 1435 1433 1430 1428 1426 1424 1423 1423 1421 1420 1420 1420 1420 1421 1421 1423 1424 1425 1426 1428 1429 1431 1432 1434 1436 1438 1440 1443 1445 1446 1448
1467 1464 1461 1458 1455 1452 1449 1447 1444 1441 1438 1436 1433 1430 1428 1426 1424 1422 1420 1419 1418 1417 1417 1417 1417 1417 1418 1418 1419 1420 1422 1423 1424 1425 1427 1428 1430 1432 1434 1436 1438 1440 1442
1464 1461 1458 1455 1452 1450 1447 1444 1441 1439 1437 1434 1432 1429 1426 1424 1422 1420 1418 1416 1415 1415 1414 1414 1414 1414 1414 1414 1415 1416 1417 1418 1418 1420 1421 1422 1425 1427 1429 1431 1433 1435 1437
1461 1458 1455 1452 1449 1447 1445 1442 1440 1437 1435 1433 1430 1428 1425 1422 1420 1418 1416 1414 1413 1412 1411 1411 1411 1410 1410 1410 1411 1411 1412 1413 1414 1414 1416 1417 1420 1421 1423 1425 1427 1429 1430
1459 1456 1453 1450 1447 1444 1442 1440 1438 1436 1435 1432 1429 1427 1424 1421 1419 1418 1415 1413 1411 1410 1409 1408 1407 1407 1407 1407 1408 1408 1408 1409 1409 1410 1412 1413 1415 1416 1418 1420 1422 1424 1425
1456 1453 1450 1448 1445 1443 1440 1438 1436 1435 1432 1430 1428 1426 1423 1421 1418 1416 1414 1411 1410 1408 1407 1405 1405 1405 1406 1406 1406 1406 1406 1406 1407 1408 1409 1410 1411 1412 1414 1416 1418 1420 1421
1455 1452 1449 1446 1444 1442 1439 1436 1433 1431 1430 1428 1426 1423 1421 1419 1416 1414 1412 1410 1408 1406 1404 1404 1404 1404 1404 1405 1404 1404 1404 1405 1405 1406 1406 1407 1408 1409 1411 1412 1414 1416 1418
1453 1450 1448 1446 1443 1441 1438 1436 1433 1430 1427 1424 1423 1421 1419 1416 1414 1412 1410 1408 1405 1404 1403 1403 1403 1403 1403 1403 1403 1403 1404 1404 1404 1404 1404 1405 1406 1407 1408 1410 1412 1413 1415
1451 1449 1446 1444 1442 1439 1437 1434 1432 1429 1427 1424 1421 1419 1417 1415 1412 1411 1409 1407 1405 1404 1403 1403 1402 1402 1402 1402 1402 1402 1403 1403 1403 1403 1403 1404 1405 1406 1407 1408 1409 1411 1412
1450 1447 1445 1443 1440 1438 1435 1433 1431 1428 1426 1423 1421 1418 1416 1413 1411 1409 1408 1407 1405 1404 1403 1402 1402 1402 1401 1401 1401 1402 1402 1402 1402 1402 1402 1403 1404 1404 1405 1406 1407 1409 1410
1448 1445 1443 1441 1439 1436 1434 1432 1430 1428 1425 1422 1420 1418 1416 1413 1411 1409 1408 1406 1405 1404 1403 1402 1401 1401 1401 1401 1401 1401 1401 1401 1401 1401 1402 1402 1403 1403 1404 1405 1406 1407 1408
1447 1444 1442 1440 1438 1435 1433 1431 1429 1426 1424 1422 1419 1417 1415 1413 1411 1409 1407 1406 1405 1404 1403 1402 1401 1401 1401 1401 1401 1400 1400 1400 1400 1401 1401 1402 1402 1402 1403 1404 1404 1405 1406
1445 1443 1441 1439 1436 1434 1432 1429 1427 1425 1423 1420 1418 1416 1414 1412 1410 1408 1407 1406 1404 1403 1402 1401 1400 1400 1400 1400 1400 1400 1400 1400 1400 1400 1401 1401 1401 1401 1402 1402 1403 1404 1404
1444 1441 1439 1437 1435 1432 1430 1428 1426 1424 1421 1419 1417 1415 1413 1411 1409 1408 1406 1405 1403 1402 1401 1400 1399 1399 1399 1399 1399 1399 1399 1399 1399 1399 1399 1399 1400 1400 1401 1401 1401 1402 1402
1441 1439 1437 1435 1433 1431 1429 1427 1425 1422 1420 1418 1416 1414 1412 1410 1408 1407 1405 1404 1402 1401 1400 1399 1398 1398 1398 1398 1398 1398 1398 1398 1398 1398 1398 1398 1398 1399 1399 1399 1400 1400 1401
1439 1437 1435 1433 1431 1429 1427 1425 1423 1421 1419 1417 1415 1413 1411 1409 1407 1406 1404 1402 1401 1399 1398 1398 1397 1397 1396 1396 1396 1396 1396 1396 1396 1397 1397 1397 1397 1397 1398 1398 1398 1399 1399